Orbital Elements at Epoch 2459200.5 (2020-Dec-17.0) TDB
Reference: JPL 25 (heliocentric ecliptic J2000)
Element | Value | Uncertainty (1-sigma) | Units |
e | .3102437660975226 | 3.3011e-08 | |
a | 2.635312061333173 | 1.0191e-08 | au |
q | 1.817722922582944 | 8.5023e-08 | au |
i | 3.661496769357678 | 5.1251e-06 | deg |
node | 174.062469921798 | 6.4236e-05 | deg |
peri | 312.0380001547807 | 6.5093e-05 | deg |
M | 187.9881850532589 | 1.1546e-05 | deg |
tp | 2459947.124572211983 (2023-Jan-02.62457221) | 5.2584e-05 | TDB |
period | 1562.595255910392 4.28 | 9.0644e-06 2.482e-08 | d yr |
n | .2303859548007257 | 1.3364e-09 | deg/d |
Q | 3.452901200083402 | 1.3353e-08 | au |
|
| | Orbit Determination Parameters
Additional Information
|